Year,Month,Day,Hour,Minute,Value (Times are PST for temperature in C)
2007,01,15,00,00,-2.70
2007,01,15,00,01,-2.70
2007,01,15,00,02,-2.70
2007,01,15,00,03,-2.70
2007,01,15,00,04,-2.70
2007,01,15,00,05,-2.70
2007,01,15,00,06,-2.80
2007,01,15,00,07,-2.70
2007,01,15,00,08,-2.70
2007,01,15,00,09,-2.70
2007,01,15,00,10,-2.70
2007,01,15,00,11,-2.70
2007,01,15,00,12,-2.70
2007,01,15,00,13,-2.70
2007,01,15,00,14,-2.70
2007,01,15,00,15,-2.70
2007,01,15,00,16,-2.70
2007,01,15,00,17,-2.70
2007,01,15,00,18,-2.70
2007,01,15,00,19,-2.70
2007,01,15,00,20,-2.70
2007,01,15,00,21,-2.70
2007,01,15,00,22,-2.70
2007,01,15,00,23,-2.70
2007,01,15,00,24,-2.70
2007,01,15,00,25,-2.70
2007,01,15,00,26,-2.70
2007,01,15,00,27,-2.70
2007,01,15,00,28,-2.60
2007,01,15,00,29,-2.60
2007,01,15,00,30,-2.60
2007,01,15,00,31,-2.60
2007,01,15,00,32,-2.60
2007,01,15,00,33,-2.60
2007,01,15,00,34,-2.60
2007,01,15,00,35,-2.60
2007,01,15,00,36,-2.60
2007,01,15,00,37,-2.60
2007,01,15,00,38,-2.60
2007,01,15,00,39,-2.60
2007,01,15,00,40,-2.60
2007,01,15,00,41,-2.50
2007,01,15,00,42,-2.50
2007,01,15,00,43,-2.50
2007,01,15,00,44,-2.50
2007,01,15,00,45,-2.50
2007,01,15,00,46,-2.50
2007,01,15,00,47,-2.50
2007,01,15,00,48,-2.50
2007,01,15,00,49,-2.60
2007,01,15,00,50,-2.60
2007,01,15,00,51,-2.50
2007,01,15,00,52,-2.50
2007,01,15,00,53,-2.50
2007,01,15,00,54,-2.50
2007,01,15,00,55,-2.50
2007,01,15,00,56,-2.50
2007,01,15,00,57,-2.50
2007,01,15,00,58,-2.50
2007,01,15,00,59,-2.50
2007,01,15,01,00,-2.50
2007,01,15,01,01,-2.60
2007,01,15,01,02,-2.60
2007,01,15,01,03,-2.60
2007,01,15,01,04,-2.70
2007,01,15,01,05,-2.70
2007,01,15,01,06,-2.70
2007,01,15,01,07,-2.70
2007,01,15,01,08,-2.80
2007,01,15,01,09,-2.80
2007,01,15,01,10,-2.80
2007,01,15,01,11,-2.80
2007,01,15,01,12,-2.80
2007,01,15,01,13,-2.80
2007,01,15,01,14,-2.80
2007,01,15,01,15,-2.80
2007,01,15,01,16,-2.80
2007,01,15,01,17,-2.80
2007,01,15,01,18,-2.80
2007,01,15,01,19,-2.80
2007,01,15,01,20,-2.80
2007,01,15,01,21,-2.80
2007,01,15,01,22,-2.80
2007,01,15,01,23,-2.80
2007,01,15,01,24,-2.80
2007,01,15,01,25,-2.80
2007,01,15,01,26,-2.80
2007,01,15,01,27,-2.80
2007,01,15,01,28,-2.80
2007,01,15,01,29,-2.80
2007,01,15,01,30,-2.70
2007,01,15,01,31,-2.70
2007,01,15,01,32,-2.70
2007,01,15,01,33,-2.70
2007,01,15,01,34,-2.70
2007,01,15,01,35,-2.70
2007,01,15,01,36,-2.70
2007,01,15,01,37,-2.60
2007,01,15,01,38,-2.60
2007,01,15,01,39,-2.60
2007,01,15,01,40,-2.50
2007,01,15,01,41,-2.50
2007,01,15,01,42,-2.50
2007,01,15,01,43,-2.50
2007,01,15,01,44,-2.50
2007,01,15,01,45,-2.50
2007,01,15,01,46,-2.60
2007,01,15,01,47,-2.60
2007,01,15,01,48,-2.60
2007,01,15,01,49,-2.60
2007,01,15,01,50,-2.60
2007,01,15,01,51,-2.70
2007,01,15,01,52,-2.70
2007,01,15,01,53,-2.70
2007,01,15,01,54,-2.70
2007,01,15,01,55,-2.80
2007,01,15,01,56,-2.80
2007,01,15,01,57,-2.80
2007,01,15,01,58,-2.90
2007,01,15,01,59,-2.90
2007,01,15,02,00,-3.00
2007,01,15,02,01,-3.00
2007,01,15,02,02,-3.10
2007,01,15,02,03,-3.10
2007,01,15,02,04,-3.10
2007,01,15,02,05,-3.10
2007,01,15,02,06,-3.10
2007,01,15,02,07,-3.10
2007,01,15,02,08,-3.10
2007,01,15,02,09,-3.10
2007,01,15,02,10,-3.10
2007,01,15,02,11,-3.10
2007,01,15,02,12,-3.10
2007,01,15,02,13,-3.10
2007,01,15,02,14,-3.10
2007,01,15,02,15,-3.10
2007,01,15,02,16,-3.10
2007,01,15,02,17,-3.10
2007,01,15,02,18,-3.00
2007,01,15,02,19,-3.00
2007,01,15,02,20,-3.00
2007,01,15,02,21,-3.00
2007,01,15,02,22,-3.00
2007,01,15,02,23,-3.10
2007,01,15,02,24,-3.10
2007,01,15,02,25,-3.10
2007,01,15,02,26,-3.10
2007,01,15,02,27,-3.10
2007,01,15,02,28,-3.00
2007,01,15,02,29,-3.00
2007,01,15,02,30,-3.00
2007,01,15,02,31,-3.00
2007,01,15,02,32,-3.00
2007,01,15,02,33,-3.00
2007,01,15,02,34,-3.00
2007,01,15,02,35,-3.10
2007,01,15,02,36,-3.10
2007,01,15,02,37,-3.10
2007,01,15,02,38,-3.10
2007,01,15,02,39,-3.10
2007,01,15,02,40,-3.10
2007,01,15,02,41,-3.10
2007,01,15,02,42,-3.10
2007,01,15,02,43,-3.10
2007,01,15,02,44,-3.10
2007,01,15,02,45,-3.10
2007,01,15,02,46,-3.10
2007,01,15,02,47,-3.10
2007,01,15,02,48,-3.10
2007,01,15,02,49,-3.10
2007,01,15,02,50,-3.10
2007,01,15,02,51,-3.10
2007,01,15,02,52,-3.00
2007,01,15,02,53,-3.00
2007,01,15,02,54,-3.00
2007,01,15,02,55,-3.00
2007,01,15,02,56,-3.00
2007,01,15,02,57,-3.00
2007,01,15,02,58,-3.00
2007,01,15,02,59,-3.00
2007,01,15,03,00,-3.00
2007,01,15,03,01,-3.00
2007,01,15,03,02,-3.00
2007,01,15,03,03,-3.10
2007,01,15,03,04,-3.10
2007,01,15,03,05,-3.10
2007,01,15,03,06,-3.10
2007,01,15,03,07,-3.10
2007,01,15,03,08,-3.10
2007,01,15,03,09,-3.10
2007,01,15,03,10,-3.20
2007,01,15,03,11,-3.20
2007,01,15,03,12,-3.20
2007,01,15,03,13,-3.20
2007,01,15,03,14,-3.20
2007,01,15,03,15,-3.20
2007,01,15,03,16,-3.20
2007,01,15,03,17,-3.20
2007,01,15,03,18,-3.20
2007,01,15,03,19,-3.20
2007,01,15,03,20,-3.20
2007,01,15,03,21,-3.20
2007,01,15,03,22,-3.20
2007,01,15,03,23,-3.30
2007,01,15,03,24,-3.30
2007,01,15,03,25,-3.30
2007,01,15,03,26,-3.30
2007,01,15,03,27,-3.30
2007,01,15,03,28,-3.30
2007,01,15,03,29,-3.30
2007,01,15,03,30,-3.30
2007,01,15,03,31,-3.30
2007,01,15,03,32,-3.30
2007,01,15,03,33,-3.30
2007,01,15,03,34,-3.40
2007,01,15,03,35,-3.40
2007,01,15,03,36,-3.40
2007,01,15,03,37,-3.40
2007,01,15,03,38,-3.40
2007,01,15,03,39,-3.40
2007,01,15,03,40,-3.50
2007,01,15,03,41,-3.50
2007,01,15,03,42,-3.50
2007,01,15,03,43,-3.50
2007,01,15,03,44,-3.60
2007,01,15,03,45,-3.60
2007,01,15,03,46,-3.60
2007,01,15,03,47,-3.60
2007,01,15,03,48,-3.60
2007,01,15,03,49,-3.60
2007,01,15,03,50,-3.60
2007,01,15,03,51,-3.60
2007,01,15,03,52,-3.60
2007,01,15,03,53,-3.60
2007,01,15,03,54,-3.50
2007,01,15,03,55,-3.50
2007,01,15,03,56,-3.50
2007,01,15,03,57,-3.50
2007,01,15,03,58,-3.50
2007,01,15,03,59,-3.50
2007,01,15,04,00,-3.50
2007,01,15,04,01,-3.50
2007,01,15,04,02,-3.50
2007,01,15,04,03,-3.50
2007,01,15,04,04,-3.50
2007,01,15,04,05,-3.50
2007,01,15,04,06,-3.50
2007,01,15,04,07,-3.50
2007,01,15,04,08,-3.50
2007,01,15,04,09,-3.40
2007,01,15,04,10,-3.40
2007,01,15,04,11,-3.40
2007,01,15,04,12,-3.30
2007,01,15,04,13,-3.30
2007,01,15,04,14,-3.20
2007,01,15,04,15,-3.20
2007,01,15,04,16,-3.20
2007,01,15,04,17,-3.20
2007,01,15,04,18,-3.30
2007,01,15,04,19,-3.30
2007,01,15,04,20,-3.30
2007,01,15,04,21,-3.30
2007,01,15,04,22,-3.40
2007,01,15,04,23,-3.40
2007,01,15,04,24,-3.50
2007,01,15,04,25,-3.50
2007,01,15,04,26,-3.50
2007,01,15,04,27,-3.60
2007,01,15,04,28,-3.60
2007,01,15,04,29,-3.60
2007,01,15,04,30,-3.60
2007,01,15,04,31,-3.60
2007,01,15,04,32,-3.60
2007,01,15,04,33,-3.60
2007,01,15,04,34,-3.60
2007,01,15,04,35,-3.60
2007,01,15,04,36,-3.60
2007,01,15,04,37,-3.50
2007,01,15,04,38,-3.50
2007,01,15,04,39,-3.50
2007,01,15,04,40,-3.50
2007,01,15,04,41,-3.50
2007,01,15,04,42,-3.50
2007,01,15,04,43,-3.50
2007,01,15,04,44,-3.50
2007,01,15,04,45,-3.50
2007,01,15,04,46,-3.50
2007,01,15,04,47,-3.50
2007,01,15,04,48,-3.50
2007,01,15,04,49,-3.50
2007,01,15,04,50,-3.50
2007,01,15,04,51,-3.40
2007,01,15,04,52,-3.40
2007,01,15,04,53,-3.40
2007,01,15,04,54,-3.30
2007,01,15,04,55,-3.30
2007,01,15,04,56,-3.30
2007,01,15,04,57,-3.30
2007,01,15,04,58,-3.30
2007,01,15,04,59,-3.20
2007,01,15,05,00,-3.20
2007,01,15,05,01,-3.10
2007,01,15,05,02,-3.10
2007,01,15,05,03,-3.10
2007,01,15,05,04,-3.10
2007,01,15,05,05,-3.10
2007,01,15,05,06,-3.00
2007,01,15,05,07,-3.00
2007,01,15,05,08,-3.00
2007,01,15,05,09,-3.00
2007,01,15,05,10,-3.00
2007,01,15,05,11,-3.00
2007,01,15,05,12,-3.00
2007,01,15,05,13,-3.00
2007,01,15,05,14,-3.00
2007,01,15,05,15,-3.00
2007,01,15,05,16,-3.00
2007,01,15,05,17,-3.00
2007,01,15,05,18,-3.00
2007,01,15,05,19,-3.00
2007,01,15,05,20,-3.10
2007,01,15,05,21,-3.10
2007,01,15,05,22,-3.10
2007,01,15,05,23,-3.10
2007,01,15,05,24,-3.10
2007,01,15,05,25,-3.10
2007,01,15,05,26,-3.20
2007,01,15,05,27,-3.20
2007,01,15,05,28,-3.20
2007,01,15,05,29,-3.20
2007,01,15,05,30,-3.20
2007,01,15,05,31,-3.20
2007,01,15,05,32,-3.30
2007,01,15,05,33,-3.30
2007,01,15,05,34,-3.30
2007,01,15,05,35,-3.30
2007,01,15,05,36,-3.30
2007,01,15,05,37,-3.30
2007,01,15,05,38,-3.30
2007,01,15,05,39,-3.30
2007,01,15,05,40,-3.30
2007,01,15,05,41,-3.30
2007,01,15,05,42,-3.30
2007,01,15,05,43,-3.30
2007,01,15,05,44,-3.30
2007,01,15,05,45,-3.30
2007,01,15,05,46,-3.30
2007,01,15,05,47,-3.30
2007,01,15,05,48,-3.40
2007,01,15,05,49,-3.40
2007,01,15,05,50,-3.40
2007,01,15,05,51,-3.40
2007,01,15,05,52,-3.50
2007,01,15,05,53,-3.50
2007,01,15,05,54,-3.50
2007,01,15,05,55,-3.60
2007,01,15,05,56,-3.60
2007,01,15,05,57,-3.60
2007,01,15,05,58,-3.70
2007,01,15,05,59,-3.70
2007,01,15,06,00,-3.70
2007,01,15,06,01,-3.70
2007,01,15,06,02,-3.70
2007,01,15,06,03,-3.80
2007,01,15,06,04,-3.80
2007,01,15,06,05,-3.90
2007,01,15,06,06,-3.90
2007,01,15,06,07,-3.90
2007,01,15,06,08,-4.00
2007,01,15,06,09,-4.00
2007,01,15,06,10,-4.00
2007,01,15,06,11,-4.00
2007,01,15,06,12,-4.00
2007,01,15,06,13,-4.00
2007,01,15,06,14,-4.10
2007,01,15,06,15,-4.10
2007,01,15,06,16,-4.10
2007,01,15,06,17,-4.10
2007,01,15,06,18,-4.10
2007,01,15,06,19,-4.10
2007,01,15,06,20,-4.10
2007,01,15,06,21,-4.10
2007,01,15,06,22,-4.10
2007,01,15,06,23,-4.20
2007,01,15,06,24,-4.20
2007,01,15,06,25,-4.20
2007,01,15,06,26,-4.20
2007,01,15,06,27,-4.20
2007,01,15,06,28,-4.20
2007,01,15,06,29,-4.20
2007,01,15,06,30,-4.20
2007,01,15,06,31,-4.20
2007,01,15,06,32,-4.20
2007,01,15,06,33,-4.20
2007,01,15,06,34,-4.20
2007,01,15,06,35,-4.20
2007,01,15,06,36,-4.20
2007,01,15,06,37,-4.30
2007,01,15,06,38,-4.30
2007,01,15,06,39,-4.30
2007,01,15,06,40,-4.30
2007,01,15,06,41,-4.30
2007,01,15,06,42,-4.30
2007,01,15,06,43,-4.30
2007,01,15,06,44,-4.30
2007,01,15,06,45,-4.30
2007,01,15,06,46,-4.30
2007,01,15,06,47,-4.30
2007,01,15,06,48,-4.30
2007,01,15,06,49,-4.30
2007,01,15,06,50,-4.30
2007,01,15,06,51,-4.30
2007,01,15,06,52,-4.30
2007,01,15,06,53,-4.30
2007,01,15,06,54,-4.30
2007,01,15,06,55,-4.30
2007,01,15,06,56,-4.30
2007,01,15,06,57,-4.30
2007,01,15,06,58,-4.40
2007,01,15,06,59,-4.40
2007,01,15,07,00,-4.40
2007,01,15,07,01,-4.40
2007,01,15,07,02,-4.30
2007,01,15,07,03,-4.30
2007,01,15,07,04,-4.30
2007,01,15,07,05,-4.30
2007,01,15,07,06,-4.30
2007,01,15,07,07,-4.20
2007,01,15,07,08,-4.20
2007,01,15,07,09,-4.20
2007,01,15,07,10,-4.20
2007,01,15,07,11,-4.20
2007,01,15,07,12,-4.20
2007,01,15,07,13,-4.20
2007,01,15,07,14,-4.20
2007,01,15,07,15,-4.20
2007,01,15,07,16,-4.20
2007,01,15,07,17,-4.20
2007,01,15,07,18,-4.20
2007,01,15,07,19,-4.20
2007,01,15,07,20,-4.20
2007,01,15,07,21,-4.20
2007,01,15,07,22,-4.20
2007,01,15,07,23,-4.20
2007,01,15,07,24,-4.20
2007,01,15,07,25,-4.20
2007,01,15,07,26,-4.20
2007,01,15,07,27,-4.20
2007,01,15,07,28,-4.20
2007,01,15,07,29,-4.20
2007,01,15,07,30,-4.20
2007,01,15,07,31,-4.20
2007,01,15,07,32,-4.20
2007,01,15,07,33,-4.20
2007,01,15,07,34,-4.20
2007,01,15,07,35,-4.20
2007,01,15,07,36,-4.20
2007,01,15,07,37,-4.20
2007,01,15,07,38,-4.20
2007,01,15,07,39,-4.20
2007,01,15,07,40,-4.20
2007,01,15,07,41,-4.20
2007,01,15,07,42,-4.20
2007,01,15,07,43,-4.20
2007,01,15,07,44,-4.20
2007,01,15,07,45,-4.20
2007,01,15,07,46,-4.20
2007,01,15,07,47,-4.20
2007,01,15,07,48,-4.20
2007,01,15,07,49,-4.20
2007,01,15,07,50,-4.20
2007,01,15,07,51,-4.20
2007,01,15,07,52,-4.20
2007,01,15,07,53,-4.20
2007,01,15,07,54,-4.20
2007,01,15,07,55,-4.20
2007,01,15,07,56,-4.20
2007,01,15,07,57,-4.20
2007,01,15,07,58,-4.20
2007,01,15,07,59,-4.20
2007,01,15,08,00,-4.20
2007,01,15,08,01,-4.20
2007,01,15,08,02,-4.20
2007,01,15,08,03,-4.20
2007,01,15,08,04,-4.20
2007,01,15,08,05,-4.20
2007,01,15,08,06,-4.20
2007,01,15,08,07,-4.20
2007,01,15,08,08,-4.20
2007,01,15,08,09,-4.10
2007,01,15,08,10,-4.10
2007,01,15,08,11,-4.10
2007,01,15,08,12,-4.10
2007,01,15,08,13,-4.10
2007,01,15,08,14,-4.10
2007,01,15,08,15,-4.00
2007,01,15,08,16,-4.00
2007,01,15,08,17,-4.00
2007,01,15,08,18,-4.00
2007,01,15,08,19,-4.00
2007,01,15,08,20,-3.90
2007,01,15,08,21,-3.90
2007,01,15,08,22,-3.90
2007,01,15,08,23,-3.80
2007,01,15,08,24,-3.80
2007,01,15,08,25,-3.80
2007,01,15,08,26,-3.70
2007,01,15,08,27,-3.70
2007,01,15,08,28,-3.70
2007,01,15,08,29,-3.70
2007,01,15,08,30,-3.70
2007,01,15,08,31,-3.70
2007,01,15,08,32,-3.70
2007,01,15,08,33,-3.70
2007,01,15,08,34,-3.60
2007,01,15,08,35,-3.60
2007,01,15,08,36,-3.60
2007,01,15,08,37,-3.50
2007,01,15,08,38,-3.50
2007,01,15,08,39,-3.50
2007,01,15,08,40,-3.50
2007,01,15,08,41,-3.40
2007,01,15,08,42,-3.40
2007,01,15,08,43,-3.40
2007,01,15,08,44,-3.40
2007,01,15,08,45,-3.30
2007,01,15,08,46,-3.30
2007,01,15,08,47,-3.30
2007,01,15,08,48,-3.30
2007,01,15,08,49,-3.30
2007,01,15,08,50,-3.30
2007,01,15,08,51,-3.30
2007,01,15,08,52,-3.30
2007,01,15,08,53,-3.30
2007,01,15,08,54,-3.30
2007,01,15,08,55,-3.20
2007,01,15,08,56,-3.20
2007,01,15,08,57,-3.20
2007,01,15,08,58,-3.10
2007,01,15,08,59,-3.00
2007,01,15,09,00,-3.00
2007,01,15,09,01,-2.90
2007,01,15,09,02,-2.90
2007,01,15,09,03,-2.80
2007,01,15,09,04,-2.80
2007,01,15,09,05,-2.80
2007,01,15,09,06,-2.80
2007,01,15,09,07,-2.80
2007,01,15,09,08,-2.80
2007,01,15,09,09,-2.90
2007,01,15,09,10,-2.90
2007,01,15,09,11,-2.90
2007,01,15,09,12,-2.90
2007,01,15,09,13,-2.90
2007,01,15,09,14,-2.80
2007,01,15,09,15,-2.80
2007,01,15,09,16,-2.80
2007,01,15,09,17,-2.80
2007,01,15,09,18,-2.80
2007,01,15,09,19,-2.80
2007,01,15,09,20,-2.80
2007,01,15,09,21,-2.70
2007,01,15,09,22,-2.70
2007,01,15,09,23,-2.60
2007,01,15,09,24,-2.60
2007,01,15,09,25,-2.60
2007,01,15,09,26,-2.50
2007,01,15,09,27,-2.50
2007,01,15,09,28,-2.50
2007,01,15,09,29,-2.50
2007,01,15,09,30,-2.40
2007,01,15,09,31,-2.40
2007,01,15,09,32,-2.40
2007,01,15,09,33,-2.40
2007,01,15,09,34,-2.30
2007,01,15,09,35,-2.30
2007,01,15,09,36,-2.30
2007,01,15,09,37,-2.30
2007,01,15,09,38,-2.20
2007,01,15,09,39,-2.20
2007,01,15,09,40,-2.10
2007,01,15,09,41,-2.10
2007,01,15,09,42,-2.00
2007,01,15,09,43,-2.00
2007,01,15,09,44,-1.90
2007,01,15,09,45,-1.80
2007,01,15,09,46,-1.80
2007,01,15,09,47,-1.70
2007,01,15,09,48,-1.70
2007,01,15,09,49,-1.60
2007,01,15,09,50,-1.50
2007,01,15,09,51,-1.40
2007,01,15,09,52,-1.40
2007,01,15,09,53,-1.30
2007,01,15,09,54,-1.30
2007,01,15,09,55,-1.30
2007,01,15,09,56,-1.20
2007,01,15,09,57,-1.20
2007,01,15,09,58,-1.10
2007,01,15,09,59,-1.10
2007,01,15,10,00,-1.10
2007,01,15,10,01,-0.90
2007,01,15,10,02,-0.90
2007,01,15,10,03,-0.80
2007,01,15,10,04,-0.70
2007,01,15,10,05,-0.60
2007,01,15,10,06,-0.50
2007,01,15,10,07,-0.40
2007,01,15,10,08,-0.30
2007,01,15,10,09,-0.30
2007,01,15,10,10,-0.20
2007,01,15,10,11,-0.10
2007,01,15,10,12,-0.10
2007,01,15,10,13,0.00
2007,01,15,10,14,0.10
2007,01,15,10,15,0.10
2007,01,15,10,16,0.20
2007,01,15,10,17,0.30
2007,01,15,10,18,0.30
2007,01,15,10,19,0.40
2007,01,15,10,20,0.40
2007,01,15,10,21,0.40
2007,01,15,10,22,0.50
2007,01,15,10,23,0.50
2007,01,15,10,24,0.60
2007,01,15,10,25,0.60
2007,01,15,10,26,0.70
2007,01,15,10,27,0.70
2007,01,15,10,28,0.70
2007,01,15,10,29,0.80
2007,01,15,10,30,0.80
2007,01,15,10,31,0.80
2007,01,15,10,32,0.80
2007,01,15,10,33,0.80
2007,01,15,10,34,0.80
2007,01,15,10,35,0.80
2007,01,15,10,36,0.90
2007,01,15,10,37,0.90
2007,01,15,10,38,0.90
2007,01,15,10,39,1.00
2007,01,15,10,40,1.00
2007,01,15,10,41,1.10
2007,01,15,10,42,1.20
2007,01,15,10,43,1.20
2007,01,15,10,44,1.30
2007,01,15,10,45,1.30
2007,01,15,10,46,1.30
2007,01,15,10,47,1.40
2007,01,15,10,48,1.50
2007,01,15,10,49,1.50
2007,01,15,10,50,1.60
2007,01,15,10,51,1.70
2007,01,15,10,52,1.70
2007,01,15,10,53,1.80
2007,01,15,10,54,1.80
2007,01,15,10,55,1.90
2007,01,15,10,56,1.90
2007,01,15,10,57,2.00
2007,01,15,10,58,2.00
2007,01,15,10,59,2.10
2007,01,15,11,00,2.10
2007,01,15,11,01,2.20
2007,01,15,11,02,2.20
2007,01,15,11,03,2.20
2007,01,15,11,04,2.20
2007,01,15,11,05,2.20
2007,01,15,11,06,2.20
2007,01,15,11,07,2.30
2007,01,15,11,08,2.30
2007,01,15,11,09,2.40
2007,01,15,11,10,2.40
2007,01,15,11,11,2.40
2007,01,15,11,12,2.40
2007,01,15,11,13,2.40
2007,01,15,11,14,2.40
2007,01,15,11,15,2.40
2007,01,15,11,16,2.40
2007,01,15,11,17,2.40
2007,01,15,11,18,2.40
2007,01,15,11,19,2.40
2007,01,15,12,11,2.50
2007,01,15,12,12,2.50
2007,01,15,12,13,2.50
2007,01,15,12,14,2.50
2007,01,15,12,15,2.50
2007,01,15,12,16,2.50
2007,01,15,12,17,2.50
2007,01,15,12,18,2.50
2007,01,15,12,19,2.50
2007,01,15,12,20,2.50
2007,01,15,12,21,2.50
2007,01,15,12,22,2.50
2007,01,15,12,23,2.50
2007,01,15,12,24,2.50
2007,01,15,12,25,2.50
2007,01,15,12,26,2.60
2007,01,15,12,27,2.60
2007,01,15,12,28,2.70
2007,01,15,12,29,2.70
2007,01,15,12,30,2.70
2007,01,15,12,31,2.70
2007,01,15,12,32,2.70
2007,01,15,12,33,2.70
2007,01,15,12,34,2.70
2007,01,15,12,35,2.60
2007,01,15,12,36,2.60
2007,01,15,12,37,2.70
2007,01,15,12,38,2.70
2007,01,15,12,39,2.70
2007,01,15,12,40,2.70
2007,01,15,12,41,2.70
2007,01,15,12,42,2.70
2007,01,15,12,43,2.70
2007,01,15,12,44,2.70
2007,01,15,12,45,2.70
2007,01,15,12,46,2.60
2007,01,15,12,47,2.60
2007,01,15,12,48,2.60
2007,01,15,12,49,2.60
2007,01,15,12,50,2.60
2007,01,15,12,51,2.60
2007,01,15,12,52,2.60
2007,01,15,12,53,2.70
2007,01,15,12,54,2.70
2007,01,15,12,55,2.70
2007,01,15,12,56,2.70
2007,01,15,12,57,2.80
2007,01,15,12,58,2.80
2007,01,15,12,59,2.80
2007,01,15,13,00,2.80
2007,01,15,13,01,2.80
2007,01,15,13,02,2.80
2007,01,15,13,03,2.80
2007,01,15,13,04,2.80
2007,01,15,13,05,2.80
2007,01,15,13,06,2.80
2007,01,15,13,07,2.80
2007,01,15,13,08,2.90
2007,01,15,13,09,2.90
2007,01,15,13,10,2.90
2007,01,15,13,11,2.90
2007,01,15,13,12,2.90
2007,01,15,13,13,2.90
2007,01,15,13,14,2.90
2007,01,15,13,15,2.90
2007,01,15,13,16,2.90
2007,01,15,13,17,2.90
2007,01,15,13,18,2.90
2007,01,15,13,19,2.90
2007,01,15,13,20,2.90
2007,01,15,13,21,2.90
2007,01,15,13,22,2.90
2007,01,15,13,23,2.90
2007,01,15,13,24,2.90
2007,01,15,13,25,2.90
2007,01,15,13,26,2.90
2007,01,15,13,27,2.90
2007,01,15,13,28,2.90
2007,01,15,13,29,2.90
2007,01,15,13,30,2.90
2007,01,15,13,31,2.90
2007,01,15,13,32,2.90
2007,01,15,13,33,2.90
2007,01,15,13,34,2.90
2007,01,15,13,35,2.90
2007,01,15,13,36,2.90
2007,01,15,13,37,2.90
2007,01,15,13,38,2.90
2007,01,15,13,39,2.90
2007,01,15,13,40,2.90
2007,01,15,13,41,2.90
2007,01,15,13,42,2.90
2007,01,15,13,43,2.90
2007,01,15,13,44,2.90
2007,01,15,13,45,2.90
2007,01,15,13,46,2.80
2007,01,15,13,47,2.80
2007,01,15,13,48,2.80
2007,01,15,13,49,2.80
2007,01,15,13,50,2.80
2007,01,15,13,51,2.80
2007,01,15,13,52,2.80
2007,01,15,13,53,2.80
2007,01,15,13,54,2.80
2007,01,15,13,55,2.90
2007,01,15,13,56,2.90
2007,01,15,13,57,2.90
2007,01,15,13,58,2.90
2007,01,15,13,59,2.90
2007,01,15,14,00,2.90
2007,01,15,14,01,2.90
2007,01,15,14,02,2.90
2007,01,15,14,03,2.90
2007,01,15,14,04,2.90
2007,01,15,14,05,2.90
2007,01,15,14,06,2.90
2007,01,15,14,07,2.90
2007,01,15,14,08,2.90
2007,01,15,14,09,2.90
2007,01,15,14,10,2.90
2007,01,15,14,11,3.00
2007,01,15,14,12,3.10
2007,01,15,14,13,3.10
2007,01,15,14,14,3.10
2007,01,15,14,15,3.10
2007,01,15,14,16,3.10
2007,01,15,14,17,3.10
2007,01,15,14,18,3.10
2007,01,15,14,19,3.10
2007,01,15,14,20,3.10
2007,01,15,14,21,3.10
2007,01,15,14,22,3.10
2007,01,15,14,23,3.10
2007,01,15,14,24,3.10
2007,01,15,14,25,3.10
2007,01,15,14,26,3.10
2007,01,15,14,27,3.10
2007,01,15,14,28,3.10
2007,01,15,14,29,3.10
2007,01,15,14,30,3.10
2007,01,15,14,31,3.10
2007,01,15,14,32,3.10
2007,01,15,14,33,3.10
2007,01,15,14,34,3.10
2007,01,15,14,35,3.10
2007,01,15,14,36,3.10
2007,01,15,14,37,3.10
2007,01,15,14,38,3.10
2007,01,15,14,39,3.10
2007,01,15,14,40,3.10
2007,01,15,14,41,3.10
2007,01,15,14,42,3.10
2007,01,15,14,43,3.10
2007,01,15,14,44,3.10
2007,01,15,14,45,3.10
2007,01,15,14,46,3.10
2007,01,15,14,47,3.10
2007,01,15,14,48,3.10
2007,01,15,14,49,3.10
2007,01,15,14,50,3.10
2007,01,15,14,51,3.10
2007,01,15,14,52,3.10
2007,01,15,14,53,3.10
2007,01,15,14,54,3.10
2007,01,15,14,55,3.10
2007,01,15,14,56,3.10
2007,01,15,14,57,3.10
2007,01,15,14,58,3.10
2007,01,15,14,59,3.10
2007,01,15,15,00,3.10
2007,01,15,15,01,3.00
2007,01,15,15,02,2.90
2007,01,15,15,03,2.90
2007,01,15,15,04,2.90
2007,01,15,15,05,2.90
2007,01,15,15,06,2.90
2007,01,15,15,07,2.90
2007,01,15,15,08,2.90
2007,01,15,15,09,2.90
2007,01,15,15,10,2.80
2007,01,15,15,11,2.80
2007,01,15,15,12,2.80
2007,01,15,15,13,2.80
2007,01,15,15,14,2.80
2007,01,15,15,15,2.80
2007,01,15,15,16,2.80
2007,01,15,15,17,2.80
2007,01,15,15,18,2.80
2007,01,15,15,19,2.80
2007,01,15,15,20,2.80
2007,01,15,15,21,2.80
2007,01,15,15,22,2.80
2007,01,15,15,23,2.80
2007,01,15,15,24,2.80
2007,01,15,15,25,2.80
2007,01,15,15,26,2.80
2007,01,15,15,27,2.80
2007,01,15,15,28,2.80
2007,01,15,15,29,2.80
2007,01,15,15,30,2.80
2007,01,15,15,31,2.80
2007,01,15,15,32,2.80
2007,01,15,15,33,2.80
2007,01,15,15,34,2.80
2007,01,15,15,35,2.80
2007,01,15,15,36,2.80
2007,01,15,15,37,2.70
2007,01,15,15,38,2.70
2007,01,15,15,39,2.70
2007,01,15,15,40,2.70
2007,01,15,15,41,2.70
2007,01,15,15,42,2.70
2007,01,15,15,43,2.70
2007,01,15,15,44,2.70
2007,01,15,15,45,2.70
2007,01,15,15,46,2.70
2007,01,15,15,47,2.70
2007,01,15,15,48,2.70
2007,01,15,15,49,2.70
2007,01,15,15,50,2.70
2007,01,15,15,51,2.70
2007,01,15,15,52,2.70
2007,01,15,15,53,2.70
2007,01,15,15,54,2.70
2007,01,15,15,55,2.70
2007,01,15,15,56,2.70
2007,01,15,15,57,2.70
2007,01,15,15,58,2.70
2007,01,15,15,59,2.70
2007,01,15,16,00,2.70
2007,01,15,16,01,2.70
2007,01,15,16,02,2.60
2007,01,15,16,03,2.60
2007,01,15,16,04,2.60
2007,01,15,16,05,2.60
2007,01,15,16,06,2.60
2007,01,15,16,07,2.60
2007,01,15,16,08,2.50
2007,01,15,16,09,2.50
2007,01,15,16,10,2.50
2007,01,15,16,11,2.50
2007,01,15,16,12,2.50
2007,01,15,16,13,2.50
2007,01,15,16,14,2.40
2007,01,15,16,15,2.40
2007,01,15,16,16,2.40
2007,01,15,16,17,2.40
2007,01,15,16,18,2.40
2007,01,15,16,19,2.40
2007,01,15,16,20,2.40
2007,01,15,16,21,2.40
2007,01,15,16,22,2.40
2007,01,15,16,23,2.40
2007,01,15,16,24,2.40
2007,01,15,16,25,2.40
2007,01,15,16,26,2.40
2007,01,15,16,27,2.40
2007,01,15,16,28,2.40
2007,01,15,16,29,2.30
2007,01,15,16,30,2.30
2007,01,15,16,31,2.30
2007,01,15,16,32,2.30
2007,01,15,16,33,2.30
2007,01,15,16,34,2.30
2007,01,15,16,35,2.30
2007,01,15,16,36,2.30
2007,01,15,16,37,2.30
2007,01,15,16,38,2.30
2007,01,15,16,39,2.30
2007,01,15,16,40,2.30
2007,01,15,16,41,2.30
2007,01,15,16,42,2.30
2007,01,15,16,43,2.30
2007,01,15,16,44,2.30
2007,01,15,16,45,2.30
2007,01,15,16,46,2.30
2007,01,15,16,47,2.30
2007,01,15,16,48,2.30
2007,01,15,16,49,2.20
2007,01,15,16,50,2.20
2007,01,15,16,51,2.20
2007,01,15,16,52,2.20
2007,01,15,16,53,2.30
2007,01,15,16,54,2.30
2007,01,15,16,55,2.30
2007,01,15,16,56,2.30
2007,01,15,16,57,2.30
2007,01,15,16,58,2.30
2007,01,15,16,59,2.30
2007,01,15,17,00,2.30
2007,01,15,17,01,2.30
2007,01,15,17,02,2.30
2007,01,15,17,03,2.30
2007,01,15,17,04,2.30
2007,01,15,17,05,2.30
2007,01,15,17,06,2.20
2007,01,15,17,07,2.20
2007,01,15,17,08,2.20
2007,01,15,17,09,2.20
2007,01,15,17,10,2.20
2007,01,15,17,11,2.20
2007,01,15,17,12,2.20
2007,01,15,17,13,2.20
2007,01,15,17,14,2.20
2007,01,15,17,15,2.10
2007,01,15,17,16,2.10
2007,01,15,17,17,2.10
2007,01,15,17,18,2.10
2007,01,15,17,19,2.00
2007,01,15,17,20,2.00
2007,01,15,17,21,2.00
2007,01,15,17,22,2.00
2007,01,15,17,23,2.00
2007,01,15,17,24,2.00
2007,01,15,17,25,1.90
2007,01,15,17,26,1.90
2007,01,15,17,27,1.90
2007,01,15,17,28,1.90
2007,01,15,17,29,1.90
2007,01,15,17,30,1.80
2007,01,15,17,31,1.80
2007,01,15,17,32,1.80
2007,01,15,17,33,1.80
2007,01,15,17,34,1.80
2007,01,15,17,35,1.80
2007,01,15,17,36,1.70
2007,01,15,17,37,1.70
2007,01,15,17,38,1.70
2007,01,15,17,39,1.70
2007,01,15,17,40,1.70
2007,01,15,17,41,1.70
2007,01,15,17,42,1.70
2007,01,15,17,43,1.60
2007,01,15,17,44,1.60
2007,01,15,17,45,1.60
2007,01,15,17,46,1.60
2007,01,15,17,47,1.60
2007,01,15,17,48,1.60
2007,01,15,17,49,1.60
2007,01,15,17,50,1.60
2007,01,15,17,51,1.50
2007,01,15,17,52,1.50
2007,01,15,17,53,1.50
2007,01,15,17,54,1.50
2007,01,15,17,55,1.50
2007,01,15,17,56,1.50
2007,01,15,17,57,1.50
2007,01,15,17,58,1.40
2007,01,15,17,59,1.40
2007,01,15,18,00,1.40
2007,01,15,18,01,1.40
2007,01,15,18,02,1.40
2007,01,15,18,03,1.40
2007,01,15,18,04,1.40
2007,01,15,18,05,1.40
2007,01,15,18,06,1.30
2007,01,15,18,07,1.30
2007,01,15,18,08,1.30
2007,01,15,18,09,1.30
2007,01,15,18,10,1.30
2007,01,15,18,11,1.30
2007,01,15,18,12,1.30
2007,01,15,18,13,1.30
2007,01,15,18,14,1.30
2007,01,15,18,15,1.30
2007,01,15,18,16,1.30
2007,01,15,18,17,1.30
2007,01,15,18,18,1.30
2007,01,15,18,19,1.30
2007,01,15,18,20,1.30
2007,01,15,18,21,1.20
2007,01,15,18,22,1.20
2007,01,15,18,23,1.20
2007,01,15,18,24,1.20
2007,01,15,18,25,1.20
2007,01,15,18,26,1.20
2007,01,15,18,27,1.20
2007,01,15,18,28,1.20
2007,01,15,18,29,1.20